Date String (YYYY-MM-DD hh:mm:ss) UTC,Instrument flags,absolute air pressure of the measurement (hPa),sample flow rate (lpm),inlet stack bypass flow (lpm),air temperature of the measurement (°C),ambient temperature measured by the external sensor (°C),aerosol sample conditioner tube jacket temperature (°C),OPC LED temperature (°C),internal box temperature (°C),relative humidity of the measurement (%),span deviation,mass concentration of particles derived from Lorenz-Mie calculation of OPC scattering (μg/m³),mass concentration of particles derived from Lorenz-Mie calculation of OPC scattering (μg/m³),mass concentration of particles derived from Lorenz-Mie calculation of OPC scattering (μg/m³)
DateTimeUTC,F1_M11,P_M11,Q1_M11,Q2_M11,T1_M11,T2_M11,T3_M11,T4_M11,T5_M11,U1_M11,ZSPAN_M11,X2_M11,X0_M11,X1_M11
2024-02-29 22:00:00,SystemResetWarning,0822.9,5.00,000.00,025.0,024.3,000.0,033.1,026.8,05.2,0000.0,0002.60,0006.63,0001.39
2024-02-29 22:01:00,SystemResetWarning,0823.0,5.00,000.00,025.0,024.3,000.0,033.1,026.8,05.2,0000.0,0002.64,0006.81,0001.37
2024-02-29 22:02:00,SystemResetWarning,0822.9,5.00,000.00,025.0,024.3,000.0,033.2,026.8,05.2,0000.0,0002.67,0006.94,0001.36
2024-02-29 22:03:00,SystemResetWarning,0822.9,5.00,000.00,025.1,024.3,000.0,033.2,026.8,05.3,0000.0,0002.55,0006.71,0001.35
2024-02-29 22:04:00,SystemResetWarning,0823.1,5.00,000.00,025.1,024.3,000.0,033.2,026.8,05.2,0000.0,0002.53,0006.79,0001.34
2024-02-29 22:05:00,SystemResetWarning,0822.9,5.00,000.00,025.1,024.4,000.0,033.2,026.8,05.3,0000.0,0002.54,0006.80,0001.34
2024-02-29 22:06:00,SystemResetWarning,0823.0,5.00,000.00,025.1,024.4,000.0,033.2,026.8,05.5,0000.0,0002.47,0006.49,0001.34
2024-02-29 22:07:00,SystemResetWarning,0823.0,5.01,000.00,025.1,024.4,000.0,033.2,026.8,05.3,0000.0,0002.49,0005.94,0001.33
2024-02-29 22:08:00,SystemResetWarning,0823.0,5.01,000.00,025.1,024.4,000.0,033.2,026.8,05.3,0000.0,0002.45,0005.01,0001.31
2024-02-29 22:09:00,SystemResetWarning,0822.9,4.99,000.00,025.1,024.4,000.0,033.2,026.8,05.4,0000.0,0002.44,0005.05,0001.29
2024-02-29 22:10:00,SystemResetWarning,0823.0,5.00,000.00,025.1,024.4,000.0,033.3,026.8,05.6,0000.0,0002.48,0005.23,0001.29
2024-02-29 22:11:00,SystemResetWarning,0822.9,5.00,000.00,025.1,024.4,000.0,033.3,026.8,05.7,0000.0,0002.46,0004.99,0001.28
2024-02-29 22:12:00,SystemResetWarning,0822.8,4.99,000.00,025.1,024.4,000.0,033.3,026.8,05.6,0000.0,0002.38,0004.82,0001.27
2024-02-29 22:13:00,SystemResetWarning,0822.9,5.00,000.00,025.1,024.4,000.0,033.3,026.8,05.4,0000.0,0002.35,0004.89,0001.28
2024-02-29 22:14:00,SystemResetWarning,0822.7,5.01,000.00,025.1,024.4,000.0,033.3,026.9,05.6,0000.0,0002.39,0005.06,0001.29
2024-02-29 22:15:00,SystemResetWarning,0822.7,5.01,000.00,025.2,024.4,000.0,033.3,026.8,05.6,0000.0,0002.45,0005.35,0001.29
2024-02-29 22:16:00,SystemResetWarning,0822.8,4.99,000.00,025.2,024.4,000.0,033.3,026.8,05.6,0000.0,0002.42,0005.26,0001.29
2024-02-29 22:17:00,SystemResetWarning,0822.7,4.99,000.00,025.2,024.4,000.0,033.3,026.9,05.7,0000.0,0002.47,0005.47,0001.30
2024-02-29 22:18:00,SystemResetWarning,0822.7,5.00,000.00,025.2,024.4,000.0,033.3,026.9,05.7,0000.0,0002.48,0005.41,0001.32
2024-02-29 22:19:00,SystemResetWarning,0822.7,5.00,000.00,025.2,024.4,000.0,033.4,026.9,05.5,0000.0,0002.51,0005.43,0001.35
2024-02-29 22:20:00,SystemResetWarning,0822.6,5.00,000.00,025.2,024.4,000.0,033.4,026.9,05.6,0000.0,0002.52,0005.37,0001.38
2024-02-29 22:21:00,SystemResetWarning,0822.7,5.00,000.00,025.2,024.4,000.0,033.4,026.9,05.6,0000.0,0002.45,0005.22,0001.39
2024-02-29 22:22:00,SystemResetWarning,0822.9,5.00,000.00,025.2,024.4,000.0,033.4,026.9,05.6,0000.0,0002.40,0005.08,0001.41
2024-02-29 22:23:00,SystemResetWarning,0822.7,5.00,000.00,025.2,024.4,000.0,033.4,026.9,05.6,0000.0,0002.43,0005.14,0001.42
2024-02-29 22:24:00,SystemResetWarning,0822.9,5.00,000.00,025.2,024.4,000.0,033.4,026.9,05.6,0000.0,0002.43,0005.04,0001.43
2024-02-29 22:25:00,SystemResetWarning,0822.7,4.99,000.00,025.2,024.4,000.0,033.4,026.9,05.8,0000.0,0002.42,0004.91,0001.44
2024-02-29 22:26:00,SystemResetWarning,0823.0,5.00,000.00,025.2,024.5,000.0,033.4,026.9,05.7,0000.0,0002.38,0004.51,0001.44
2024-02-29 22:27:00,SystemResetWarning,0822.9,5.01,000.00,025.2,024.4,000.0,033.4,026.9,05.6,0000.0,0002.37,0004.62,0001.44
2024-02-29 22:28:00,SystemResetWarning,0822.9,5.00,000.00,025.2,024.4,000.0,033.5,026.9,05.7,0000.0,0002.36,0004.47,0001.44
2024-02-29 22:29:00,SystemResetWarning,0823.0,4.99,000.00,025.2,024.4,000.0,033.5,026.9,05.6,0000.0,0002.33,0004.53,0001.44
2024-02-29 22:30:00,SystemResetWarning,0822.9,4.99,000.00,025.2,024.4,000.0,033.5,027.0,05.5,0000.0,0002.34,0004.69,0001.44
2024-02-29 22:31:00,SystemResetWarning,0823.0,5.00,000.00,025.2,024.4,000.0,033.5,027.0,05.5,0000.0,0002.42,0005.08,0001.45
2024-02-29 22:32:00,SystemResetWarning,0823.1,5.01,000.00,025.2,024.5,000.0,033.5,026.9,05.5,0000.0,0002.50,0005.28,0001.46
2024-02-29 22:33:00,SystemResetWarning,0823.0,5.00,000.00,025.2,024.5,000.0,033.4,026.9,05.5,0000.0,0002.52,0005.41,0001.45
2024-02-29 22:34:00,SystemResetWarning,0823.0,5.01,000.00,025.2,024.5,000.0,033.4,027.0,05.6,0000.0,0002.48,0005.29,0001.45
2024-02-29 22:35:00,SystemResetWarning,0823.0,5.00,000.00,025.2,024.5,000.0,033.5,027.0,05.6,0000.0,0002.45,0005.11,0001.44
2024-02-29 22:36:00,SystemResetWarning,0823.0,4.99,000.00,025.3,024.5,000.0,033.5,027.0,05.4,0000.0,0002.44,0005.05,0001.43
2024-02-29 22:37:00,SystemResetWarning,0823.0,5.00,000.00,025.3,024.5,000.0,033.5,027.0,05.7,0000.0,0002.41,0004.93,0001.43
2024-02-29 22:38:00,SystemResetWarning,0823.0,5.01,000.00,025.3,024.5,000.0,033.5,027.0,05.8,0000.0,0002.38,0004.88,0001.45
2024-02-29 22:39:00,SystemResetWarning,0823.0,5.01,000.00,025.3,024.5,000.0,033.5,027.0,05.6,0000.0,0002.36,0005.30,0001.45
2024-02-29 22:40:00,SystemResetWarning,0823.0,4.99,000.00,025.3,024.5,000.0,033.5,027.0,05.7,0000.0,0002.40,0005.75,0001.45
2024-02-29 22:41:00,SystemResetWarning,0823.0,4.99,000.00,025.3,024.5,000.0,033.5,027.0,05.7,0000.0,0002.43,0005.72,0001.44
2024-02-29 22:42:00,SystemResetWarning,0823.0,5.01,000.00,025.3,024.5,000.0,033.5,027.1,05.6,0000.0,0002.41,0005.48,0001.44
2024-02-29 22:43:00,SystemResetWarning,0823.0,5.00,000.00,025.3,024.5,000.0,033.5,027.1,05.5,0000.0,0002.37,0005.28,0001.45
2024-02-29 22:44:00,SystemResetWarning,0822.9,5.00,000.00,025.3,024.6,000.0,033.5,027.1,05.4,0000.0,0002.37,0005.17,0001.44
2024-02-29 22:45:00,SystemResetWarning,0823.0,5.00,000.00,025.3,024.6,000.0,033.5,027.0,05.5,0000.0,0002.42,0005.28,0001.44
2024-02-29 22:46:00,SystemResetWarning,0822.9,5.00,000.00,025.3,024.6,000.0,033.5,027.0,05.4,0000.0,0002.42,0005.37,0001.42
2024-02-29 22:47:00,SystemResetWarning,0822.9,5.00,000.00,025.3,024.6,000.0,033.5,027.1,05.3,0000.0,0002.43,0006.37,0001.43
2024-02-29 22:48:00,SystemResetWarning,0823.0,5.00,000.00,025.3,024.6,000.0,033.5,027.0,05.5,0000.0,0002.46,0006.74,0001.44
2024-02-29 22:49:00,SystemResetWarning,0823.0,5.00,000.00,025.3,024.6,000.0,033.5,027.0,05.6,0000.0,0002.46,0007.49,0001.44
2024-02-29 22:50:00,SystemResetWarning,0823.0,5.00,000.00,025.3,024.6,000.0,033.5,027.1,05.4,0000.0,0002.55,0007.50,0001.44
2024-02-29 22:51:00,SystemResetWarning,0822.9,5.00,000.00,025.4,024.6,000.0,033.6,027.1,05.4,0000.0,0002.53,0007.48,0001.44
2024-02-29 22:52:00,SystemResetWarning,0822.9,5.00,000.00,025.4,024.6,000.0,033.6,027.1,05.5,0000.0,0002.53,0008.27,0001.43
2024-02-29 22:53:00,SystemResetWarning,0823.0,5.00,000.00,025.4,024.6,000.0,033.6,027.1,05.4,0000.0,0002.47,0008.22,0001.42
2024-02-29 22:54:00,SystemResetWarning,0823.1,5.00,000.00,025.4,024.6,000.0,033.6,027.1,05.4,0000.0,0002.43,0008.18,0001.39
2024-02-29 22:55:00,SystemResetWarning,0823.0,4.99,000.00,025.4,024.6,000.0,033.6,027.1,05.5,0000.0,0002.51,0008.30,0001.40
2024-02-29 22:56:00,SystemResetWarning,0823.0,5.00,000.00,025.4,024.6,000.0,033.6,027.1,05.4,0000.0,0002.53,0008.36,0001.41
2024-02-29 22:57:00,SystemResetWarning,0823.0,5.00,000.00,025.4,024.6,000.0,033.6,027.1,05.5,0000.0,0002.59,0008.55,0001.45
2024-02-29 22:58:00,SystemResetWarning,0823.1,5.00,000.00,025.4,024.6,000.0,033.6,027.1,05.4,0000.0,0002.61,0008.11,0001.46
2024-02-29 22:59:00,SystemResetWarning,0823.0,5.00,000.00,025.4,024.6,000.0,033.6,027.1,05.5,0000.0,0002.61,0007.89,0001.47
